Wind_Speed
12 12 12 12 13 13 12 12 12 12 12 12 12 13 11 10 11 12 15 15 11 9 9 9 9 9 10 10 10 10 10 7 7
12 12 12 13 13 13 13 13 13 13 13 14 14 13 10 10 10 11 8 12 9 8 9 9 9 9 9 10 10 9 9 8 8
13 12 13 13 13 13 14 13 13 13 13 14 13 11 8 9 10 11 10 11 9 8 8 8 8 8 8 8 8 8 8 8 8
15 15 14 14 14 13 13 13 12 12 12 12 12 12 9 9 10 10 10 9 8 6 7 7 7 7 6 6 6 7 7 7 8
13 13 13 12 12 11 12 11 11 10 10 10 9 10 9 9 9 9 9 7 7 8 11 13 12 9 8 7 6 6 7 7 8
10 10 11 10 11 10 11 10 10 9 9 7 8 8 8 7 9 10 10 10 12 11 11 11 13 14 11 8 6 5 5 7 8
8 9 9 8 9 9 8 8 9 9 9 8 6 8 7 7 9 9 8 10 11 12 11 11 11 13 12 12 12 11 11 10 10
7 7 8 8 9 9 9 9 9 10 9 9 7 8 6 7 9 9 8 9 8 10 12 11 10 10 12 12 12 13 12 12 12
7 8 9 10 10 9 10 9 9 9 9 9 7 5 7 7 10 11 9 10 10 9 10 10 10 9 8 11 9 9 12 12 12
7 8 9 9 9 9 9 8 8 8 8 8 7 4 6 7 8 10 8 8 10 10 10 10 9 9 8 9 10 10 11 11 11
6 8 8 8 9 9 9 8 8 7 7 7 7 4 6 6 5 6 6 6 7 8 9 10 9 9 8 8 8 9 11 12 11
6 6 7 8 8 7 7 8 9 6 6 7 8 7 7 4 4 3 4 6 9 9 10 9 8 8 8 7 7 9 10 11 12
5 5 6 7 7 7 8 9 11 10 4 5 4 4 3 2 2 2 3 7 10 11 10 9 6 7 7 7 7 9 11 12 12
4 5 6 6 6 8 7 8 10 13 5 2 2 2 2 1 2 2 4 6 10 11 11 11 7 7 7 7 7 9 11 12 12
3 4 4 4 6 8 8 7 9 14 9 3 1 1 2 2 2 2 4 6 9 10 11 13 10 8 6 7 7 10 12 12 12
2 2 3 4 6 8 9 7 7 12 13 4 2 2 4 4 5 5 4 5 8 10 11 12 13 11 10 10 10 10 13 13 13
2 2 2 3 4 6 8 9 7 8 12 8 3 3 2 3 4 2 2 4 9 7 13 11 13 14 13 12 11 12 13 14 13
2 1 1 3 4 6 7 8 8 8 6 9 5 2 2 5 2 3 4 1 9 14 12 8 15 17 13 14 13 13 14 14 12
1 0 2 2 3 5 6 7 7 7 8 4 7 4 3 1 4 3 6 10 16 19 11 18 18 13 13 15 15 15 14 13 13
1 1 2 3 4 5 6 6 6 6 6 6 6 6 7 4 2 4 9 23 24 21 17 20 17 17 16 19 17 15 15 14 14
Wind_Direction
74 72 70 67 63 60 55 51 49 45 45 47 69 71 73 73 73 69 67 65 64 54 34 26 22 17 10 7 5 11 16 359 324
72 70 68 65 61 57 53 51 50 47 47 63 74 71 60 74 70 62 64 62 54 47 36 29 24 22 16 11 8 3 7 7 11
70 67 65 61 58 54 53 52 45 47 61 67 60 46 59 77 69 55 70 61 48 37 29 28 23 21 18 16 14 12 9 3 358
68 67 67 63 59 57 54 48 44 57 66 63 57 51 78 80 71 56 77 61 46 32 35 33 29 24 14 7 11 15 15 10 1
63 64 62 62 57 56 44 45 47 57 67 67 61 56 87 81 62 56 79 61 58 61 55 51 44 36 30 20 12 16 11 7 1
61 60 58 55 57 56 52 53 50 52 56 58 55 53 78 77 70 62 70 65 56 51 44 36 35 35 38 35 40 27 12 28 28
64 62 55 57 54 54 52 50 51 45 45 50 60 53 80 86 71 66 71 53 46 43 43 34 30 28 33 40 44 43 37 34 32
69 64 58 57 58 57 52 58 50 42 41 42 56 54 87 88 81 68 69 60 49 42 40 38 33 25 26 40 37 30 18 22 26
72 62 54 56 58 55 49 54 50 46 50 48 55 57 91 95 84 68 67 65 55 50 39 35 26 23 16 28 16 1 12 10 4
71 60 59 58 55 56 50 51 47 51 58 57 59 67 104 111 89 76 54 56 55 44 35 28 24 20 13 13 14 356 2 7 5
76 65 63 59 53 53 48 49 43 59 69 66 57 92 112 117 87 60 41 37 33 28 21 19 18 20 18 10 12 6 3 360 358
76 69 64 56 50 54 55 55 44 63 66 75 82 92 115 112 87 33 29 23 11 8 6 6 18 20 24 20 8 3 357 356 353
82 73 65 54 48 51 53 48 40 37 59 77 84 83 102 90 18 6 16 13 7 3 359 1 14 20 21 17 6 1 357 354 349
88 75 69 58 49 48 53 44 35 26 44 47 91 57 38 4 12 357 349 4 2 5 13 8 359 1 8 8 3 0 357 352 348
103 81 71 54 47 49 47 44 36 23 15 351 255 220 42 56 32 353 340 345 358 7 8 7 0 349 342 347 353 354 355 351 349
124 95 65 45 38 41 37 33 25 24 20 12 356 271 246 275 291 299 315 351 353 356 351 353 358 350 344 332 334 344 353 350 346
142 110 65 42 35 35 33 31 25 24 25 23 7 1 323 293 326 227 334 333 344 349 336 330 339 334 327 332 328 333 341 349 343
151 113 49 28 24 27 27 25 25 15 26 30 33 10 304 325 309 227 357 325 352 345 345 332 330 321 303 313 318 324 330 342 339
173 132 17 10 12 17 19 16 16 13 12 5 12 353 298 337 327 310 280 300 328 336 340 335 330 319 301 301 304 315 323 336 336
210 334 344 349 358 4 2 0 1 1 357 356 345 340 322 312 262 295 310 313 317 327 324 334 332 332 309 295 290 303 315 324 332
Height
834 834 833 832 831 831 830 829 828 827 827 826 826 825 825 825 824 824 824 823 824 824 823 822 821 820 820 819 818 817 816 815 814
835 835 834 833 832 831 831 830 830 829 828 827 827 827 826 826 826 825 825 824 825 824 824 823 822 820 819 819 817 817 816 815 814
836 835 835 834 833 832 832 831 831 830 829 829 829 828 828 827 827 827 827 827 826 825 824 823 822 821 820 818 817 816 815 815 814
837 836 836 835 834 834 833 833 832 831 830 829 829 828 828 828 827 827 826 827 826 825 824 822 821 820 818 818 817 816 815 814 814
838 838 837 836 835 834 833 833 832 832 831 830 830 829 829 829 828 828 828 827 826 825 824 823 821 820 819 818 817 816 815 814 813
839 838 837 837 835 835 834 833 833 832 831 831 830 830 829 829 829 828 828 828 827 827 826 825 823 821 819 818 817 817 815 814 812
840 839 838 837 836 835 835 833 833 832 831 831 831 830 830 830 830 830 829 829 829 828 827 826 825 823 822 820 819 818 817 816 813
841 840 839 838 836 835 835 834 833 832 832 831 831 830 831 831 830 830 829 829 830 829 829 827 826 825 824 822 820 819 819 817 815
842 841 839 838 837 837 836 835 834 833 832 832 831 831 831 832 831 831 830 830 830 830 829 828 827 826 825 823 821 821 819 817 816
842 842 841 840 839 838 837 836 835 834 833 833 832 832 832 833 832 831 831 830 830 830 829 829 827 826 825 824 823 822 820 817 816
843 842 842 841 840 838 837 836 835 834 834 833 833 833 833 834 833 832 832 831 831 830 829 828 827 826 825 824 823 822 820 819 817
843 843 843 842 841 839 838 837 836 835 835 835 834 835 835 835 834 834 833 832 831 830 829 828 827 826 825 824 824 822 820 818 816
844 844 844 843 842 840 839 838 837 836 835 835 835 836 836 836 835 834 834 833 832 830 828 827 826 825 824 824 823 822 820 818 816
844 845 844 844 842 841 840 839 838 837 836 836 836 836 836 836 836 835 835 834 833 831 829 828 826 826 825 823 822 821 818 817 815
844 845 845 844 843 842 841 840 839 838 836 835 835 835 836 836 836 835 835 834 833 831 829 828 826 825 824 823 821 820 818 816 814
845 845 845 845 844 843 842 841 840 839 837 836 835 834 834 835 835 835 834 834 834 832 830 828 827 826 824 822 821 819 818 816 814
844 845 845 845 845 844 843 842 841 841 839 838 837 837 835 834 833 833 834 834 833 832 830 828 827 825 823 821 820 818 816 815 813
844 845 845 846 846 845 844 843 843 842 841 841 841 840 841 837 832 833 833 833 832 831 829 828 827 824 823 820 819 817 815 813 811
845 845 846 846 846 845 845 845 844 844 843 842 842 841 841 841 838 832 832 831 830 829 828 827 824 822 820 819 817 815 813 812 810
845 846 846 846 846 846 846 845 845 845 844 844 843 842 841 840 841 839 832 830 828 828 826 825 823 821 819 817 815 814 812 810 809